Location: Trois-Rivi�res
(46.3500°N, 72.5500°W)
Time: 19:25:08
(UTC-04:00)

OTV 5 (USA 277) - Pass Details

Date: 08 October 2017
Orbit: 404 x 417 km, 43.0° (Epoch: 07 September)

Event Time Altitude Azimuth Distance (km) Brightness Sun altitude
Rises 19:49:45 0° 207° (SSW) 2,344 ? -16.9°
Reaches altitude 10° 19:52:44 10° 178° (S) 1,484 ? -17.4°
Enters shadow 19:52:56 11° 175° (S) 1,449 ? -17.5°
